Wind_Speed
9 9 9 9 10 10 11 12 12 13 13 14 15 14 15 16 17 17 19 19 19 20 20 20 21 21 23 24 24 24 25 25 25 25 25 24 24 26 26 27 27 28 28
9 9 9 9 10 11 12 13 13 14 14 14 15 15 16 16 16 17 18 19 19 20 21 21 22 22 22 23 23 24 25 26 26 26 25 25 26 26 27 28 29 28 29
10 10 10 10 10 11 12 13 14 14 15 15 15 16 15 15 16 17 17 19 19 20 21 22 22 23 23 23 23 24 25 25 26 25 26 27 27 27 29 29 30 29 29
10 10 10 10 10 11 12 13 14 15 15 15 15 15 16 16 17 17 18 19 19 20 20 22 22 23 23 23 24 24 24 25 25 26 27 28 29 29 30 30 29 30 30
10 10 11 11 12 12 13 13 14 15 16 16 16 16 16 17 18 18 19 19 19 20 21 22 23 23 22 23 24 24 25 25 26 27 28 29 30 30 30 30 31 31 32
11 11 12 12 13 13 13 14 15 15 16 16 16 16 17 18 19 19 20 19 20 21 22 22 22 22 23 24 24 25 25 26 27 28 28 28 29 30 30 31 31 32 33
13 13 13 13 14 14 14 14 15 15 15 16 16 17 17 18 19 20 20 20 21 21 21 22 22 23 24 24 24 25 26 27 28 28 28 29 30 30 31 31 32 33 33
14 15 14 14 15 15 15 16 16 16 16 17 17 18 19 19 19 20 20 21 21 21 22 23 23 24 24 24 24 25 26 27 28 28 29 30 30 30 30 31 31 32 32
16 16 16 16 16 16 16 17 17 17 17 17 18 19 19 20 20 20 20 21 21 22 23 24 24 25 24 25 25 25 26 26 27 28 29 29 29 30 30 30 32 32 33
18 18 18 18 18 18 18 18 18 18 18 18 18 19 20 20 20 21 21 22 23 23 23 24 24 24 24 25 26 26 27 27 28 28 29 28 28 29 30 32 32 33 34
20 21 21 20 20 20 20 20 20 19 20 20 20 20 21 21 22 22 22 23 24 24 25 25 25 25 26 27 27 27 27 27 28 28 28 28 29 30 31 32 33 33 34
22 23 22 22 22 22 22 22 21 22 22 22 22 22 22 23 23 24 24 24 25 25 26 26 26 26 27 27 27 27 27 28 28 28 29 29 29 30 31 32 33 34 35
24 24 24 24 24 23 23 23 23 23 24 24 24 24 24 24 24 25 25 25 26 26 26 26 26 26 27 27 27 27 27 28 28 29 29 29 30 31 32 33 33 34 34
26 25 25 25 25 24 24 24 25 25 25 25 26 26 26 25 25 25 26 26 26 26 26 27 27 27 27 26 26 26 27 28 29 29 29 30 30 31 32 33 33 34 34
27 27 27 27 27 26 26 26 26 27 27 27 27 28 28 27 27 27 27 27 27 27 28 28 28 27 26 26 26 27 28 30 30 30 31 31 32 32 33 33 33 33 33
28 28 28 28 28 28 28 28 28 28 28 28 28 28 28 28 28 28 28 28 28 28 28 28 27 27 27 27 27 28 29 30 30 31 32 32 32 32 32 32 32 32 32
30 30 30 30 29 29 29 29 29 29 28 28 28 28 29 29 28 28 28 29 29 29 29 29 29 28 28 28 28 29 29 30 31 31 32 32 32 32 31 31 31 30 30
31 31 31 31 30 30 30 30 29 29 29 29 29 29 29 28 28 29 29 29 29 29 29 29 29 28 28 28 29 30 30 31 31 31 31 31 31 31 31 30 29 29 28
31 31 31 31 31 31 30 30 29 29 29 29 30 30 29 28 29 29 28 28 28 28 29 29 28 28 28 29 30 30 31 31 31 31 31 31 30 30 29 29 29 28 28
32 32 32 32 31 31 31 30 30 30 30 30 29 29 28 28 28 28 27 27 27 28 28 28 27 27 29 29 29 30 30 30 30 30 31 30 29 29 29 28 28 28 28
32 32 32 32 31 31 30 30 30 29 29 29 29 28 28 27 27 27 27 27 27 27 28 28 28 28 29 29 29 29 29 29 30 30 29 29 29 29 28 27 27 27 27
32 32 31 31 30 30 29 29 29 28 28 28 28 27 27 27 27 27 27 28 27 27 28 29 29 29 29 29 29 29 29 29 29 29 28 28 28 28 28 27 27 27 27
31 31 31 30 30 29 29 29 29 28 28 27 27 27 27 27 28 28 29 29 28 28 29 29 29 29 29 29 29 29 28 29 29 28 28 28 28 28 28 28 27 27 27
31 30 30 29 29 28 28 28 28 27 27 27 26 26 27 27 28 28 28 28 28 29 29 28 29 29 29 29 29 29 29 29 29 29 28 28 28 28 28 27 27 27 26
30 30 30 28 28 28 28 28 27 27 27 27 27 27 27 28 28 28 28 29 29 29 29 29 30 30 29 30 30 29 29 29 29 28 28 28 28 28 27 27 26 26 26
29 30 29 28 27 27 27 27 27 27 27 27 27 27 28 28 28 28 28 28 29 29 29 29 29 30 30 29 29 30 29 29 28 29 28 28 27 27 26 26 26 26 25
Wind_Direction
301 298 290 284 278 277 278 280 280 278 274 273 270 269 270 268 264 265 266 266 265 266 266 268 270 271 273 270 270 273 274 275 275 275 278 280 280 282 285 284 283 283 283
298 294 289 287 283 281 279 282 283 281 276 273 270 272 273 271 267 267 269 268 269 269 269 271 273 272 272 271 272 273 274 275 275 277 279 281 283 285 286 286 284 284 283
295 292 289 287 287 286 284 285 285 283 278 274 275 274 273 271 271 272 273 273 271 271 272 273 275 275 273 273 273 275 275 276 277 277 279 281 283 285 287 285 285 286 286
299 295 292 291 291 290 289 288 287 286 283 280 277 274 272 272 274 275 278 278 276 275 275 274 275 277 277 276 275 276 277 277 278 279 279 280 281 282 283 284 284 285 286
304 303 298 295 293 293 293 291 287 284 283 283 279 276 274 274 276 278 280 279 278 277 277 277 277 277 278 279 278 278 278 278 280 281 280 280 281 282 284 284 285 286 287
302 300 297 294 294 294 294 291 291 289 285 282 278 276 277 279 280 280 280 279 279 280 280 279 280 279 280 281 280 280 281 281 282 281 283 283 283 284 285 285 286 288 290
296 298 298 296 295 293 293 292 292 291 287 281 278 277 280 281 279 280 281 281 279 280 281 282 284 283 283 283 283 282 283 283 283 283 283 284 285 286 285 285 287 289 290
295 297 297 295 294 293 292 292 292 290 288 285 280 279 279 281 282 283 283 283 283 284 285 286 286 285 284 284 286 287 288 288 287 286 287 286 286 287 286 286 287 289 291
296 296 295 294 294 293 293 292 293 292 290 287 282 282 282 282 283 285 284 284 285 286 286 287 288 288 286 287 289 289 290 290 289 288 290 288 285 286 287 288 291 292 292
296 295 294 292 292 291 291 292 291 292 292 290 286 285 285 284 284 284 284 285 285 286 287 289 290 289 288 290 292 292 291 292 291 292 291 289 289 290 291 293 294 294 294
296 295 293 292 291 290 289 289 289 289 290 289 287 285 285 283 283 284 285 285 285 285 286 288 289 288 287 289 291 292 292 293 293 294 294 292 291 292 293 294 295 295 296
293 294 290 289 289 289 288 286 286 286 288 288 288 287 286 285 285 285 285 286 287 288 288 289 289 289 289 290 291 292 293 293 294 296 296 295 293 294 295 295 296 297 298
292 293 290 287 288 288 287 285 284 285 286 287 288 286 285 285 285 286 286 286 286 287 288 289 291 291 291 291 292 294 295 294 296 298 297 296 295 295 296 296 298 299 300
288 290 290 288 287 286 286 286 286 286 285 285 286 286 284 284 284 284 285 286 288 289 290 291 293 292 292 293 294 294 294 296 298 298 297 297 298 299 299 299 300 301 301
284 285 287 288 286 285 286 285 286 286 286 285 285 285 284 284 284 285 287 287 288 291 291 292 293 293 293 293 293 293 294 296 297 297 299 300 300 300 300 300 301 302 302
281 283 285 286 286 285 285 285 284 285 285 284 284 284 284 283 283 284 286 287 288 290 290 292 293 293 293 293 294 295 296 297 298 299 300 301 301 301 302 302 303 303 303
278 281 284 286 285 285 285 285 284 283 282 283 285 285 284 283 283 284 285 287 287 288 290 292 294 293 292 292 293 294 296 297 299 301 302 302 302 302 303 303 304 304 303
278 281 283 284 284 284 284 284 284 283 282 281 282 283 283 283 283 284 285 285 286 287 289 291 292 292 292 292 293 295 296 297 299 301 302 302 302 303 304 304 304 304 304
277 280 281 283 283 284 284 284 284 283 281 282 282 282 282 283 284 285 286 286 286 287 288 289 290 291 292 293 293 294 295 297 298 300 302 303 303 303 304 304 304 304 304
277 278 280 282 282 283 283 282 282 282 281 281 282 281 282 283 285 285 286 286 287 288 289 290 291 293 293 293 293 294 295 296 297 299 301 302 302 303 304 304 304 304 304
275 277 279 280 281 281 282 281 281 282 282 281 282 282 282 283 283 284 284 286 288 289 289 289 290 292 294 295 296 296 297 297 298 300 301 301 301 302 303 304 303 304 303
274 276 278 279 280 280 281 281 281 282 282 282 282 282 282 282 283 284 285 286 288 289 290 290 290 292 294 295 295 296 297 298 298 299 300 300 301 302 302 302 302 302 303
275 277 278 279 280 280 280 280 280 280 281 281 282 282 282 282 283 284 285 286 287 288 289 290 291 292 294 295 295 296 297 297 297 298 299 300 300 301 301 301 301 302 302
274 276 277 278 278 278 279 279 279 279 279 280 282 282 283 284 285 286 286 286 286 288 289 289 291 292 293 294 295 295 295 296 297 299 299 298 298 299 300 299 300 301 301
273 275 276 276 276 277 278 278 278 278 279 280 282 283 285 286 286 287 288 288 288 289 290 291 291 292 293 293 294 295 295 296 296 297 297 296 296 298 298 299 298 299 300
273 274 274 274 275 276 277 277 278 279 280 281 281 283 285 287 287 287 289 290 291 291 291 291 291 291 292 292 293 294 293 293 293 294 295 295 296 297 298 298 298 298 299
Height
5879 5878 5878 5877 5876 5876 5876 5876 5875 5874 5874 5874 5874 5874 5874 5874 5874 5874 5874 5874 5874 5874 5874 5874 5873 5873 5872 5872 5871 5871 5870 5869 5868 5867 5866 5865 5864 5863 5861 5860 5858 5857 5855
5878 5877 5876 5875 5874 5874 5873 5873 5872 5871 5871 5870 5870 5870 5870 5870 5870 5870 5870 5869 5869 5869 5869 5868 5868 5867 5866 5866 5865 5865 5864 5863 5862 5861 5860 5858 5857 5856 5854 5853 5852 5850 5848
5876 5875 5874 5873 5872 5871 5871 5870 5869 5868 5867 5867 5867 5866 5866 5866 5866 5865 5865 5864 5864 5864 5863 5863 5862 5861 5861 5860 5859 5859 5857 5856 5855 5854 5853 5852 5851 5850 5848 5846 5844 5843 5841
5874 5872 5871 5870 5870 5869 5868 5867 5866 5865 5864 5863 5863 5862 5862 5862 5861 5861 5860 5860 5859 5859 5858 5857 5856 5856 5855 5854 5853 5852 5851 5850 5849 5848 5847 5845 5844 5843 5841 5839 5837 5835 5833
5872 5871 5869 5868 5867 5866 5865 5864 5863 5862 5861 5860 5858 5858 5857 5857 5857 5856 5855 5854 5854 5853 5852 5852 5851 5850 5849 5848 5847 5846 5845 5844 5842 5841 5839 5838 5837 5835 5833 5831 5829 5827 5825
5869 5868 5867 5865 5864 5863 5862 5861 5859 5858 5857 5855 5855 5854 5853 5852 5852 5851 5850 5849 5849 5848 5847 5846 5845 5844 5843 5841 5840 5839 5838 5837 5835 5833 5832 5830 5829 5827 5825 5823 5821 5819 5817
5867 5865 5864 5862 5861 5860 5858 5857 5856 5854 5853 5852 5851 5850 5849 5848 5848 5847 5845 5844 5843 5842 5841 5840 5839 5838 5836 5835 5834 5832 5831 5829 5828 5826 5824 5823 5821 5819 5817 5815 5812 5810 5808
5864 5862 5861 5859 5858 5856 5855 5854 5852 5850 5849 5848 5847 5846 5845 5844 5843 5842 5841 5840 5839 5837 5836 5835 5833 5832 5830 5829 5827 5825 5824 5822 5820 5818 5816 5814 5813 5811 5808 5806 5804 5801 5799
5860 5858 5857 5855 5854 5852 5851 5850 5848 5846 5845 5843 5842 5841 5840 5839 5838 5837 5836 5835 5833 5832 5830 5829 5827 5826 5824 5822 5820 5818 5817 5815 5812 5810 5808 5806 5804 5802 5800 5798 5796 5793 5790
5856 5854 5853 5851 5850 5848 5847 5845 5843 5842 5841 5839 5838 5837 5836 5834 5833 5832 5831 5829 5828 5826 5824 5823 5821 5819 5818 5816 5814 5812 5810 5807 5805 5803 5801 5798 5796 5794 5792 5790 5787 5784 5781
5852 5850 5848 5847 5845 5844 5842 5841 5839 5837 5836 5835 5833 5832 5831 5829 5828 5826 5825 5823 5822 5820 5819 5817 5815 5813 5811 5809 5807 5805 5803 5800 5798 5795 5793 5790 5788 5786 5783 5780 5778 5775 5772
5846 5844 5843 5842 5840 5838 5837 5835 5834 5832 5831 5830 5828 5826 5825 5823 5822 5820 5819 5817 5816 5814 5812 5810 5808 5806 5804 5802 5800 5798 5795 5793 5790 5788 5785 5782 5780 5777 5774 5771 5768 5765 5762
5841 5839 5837 5836 5834 5832 5831 5829 5828 5827 5825 5824 5822 5821 5819 5817 5816 5814 5812 5810 5809 5807 5805 5803 5801 5799 5797 5795 5793 5790 5788 5785 5783 5780 5777 5775 5772 5768 5765 5763 5759 5756 5752
5834 5833 5831 5830 5828 5826 5825 5823 5822 5820 5819 5817 5816 5814 5812 5811 5809 5807 5806 5804 5802 5800 5798 5796 5794 5792 5790 5787 5785 5783 5780 5778 5775 5772 5769 5767 5763 5760 5757 5754 5750 5747 5743
5828 5826 5825 5824 5822 5820 5818 5816 5815 5813 5812 5810 5809 5807 5805 5804 5802 5800 5799 5797 5795 5793 5791 5789 5786 5784 5782 5780 5777 5775 5773 5770 5767 5764 5761 5758 5755 5751 5748 5744 5741 5737 5733
5820 5819 5818 5816 5815 5813 5811 5809 5807 5806 5804 5803 5801 5800 5798 5796 5794 5793 5791 5789 5787 5785 5783 5781 5779 5777 5774 5772 5770 5767 5764 5762 5759 5756 5753 5749 5746 5743 5739 5735 5732 5728 5724
5813 5812 5810 5809 5807 5805 5804 5802 5800 5798 5797 5795 5793 5791 5790 5788 5786 5785 5783 5781 5779 5777 5775 5773 5771 5769 5766 5764 5762 5759 5756 5753 5750 5747 5744 5741 5737 5734 5730 5727 5723 5719 5716
5805 5803 5802 5801 5799 5797 5795 5794 5792 5790 5789 5787 5785 5783 5782 5780 5779 5777 5775 5773 5771 5770 5768 5765 5763 5761 5758 5756 5753 5751 5748 5745 5742 5739 5736 5732 5729 5725 5722 5718 5715 5712 5708
5796 5795 5793 5792 5790 5789 5787 5785 5784 5782 5780 5778 5777 5775 5774 5772 5770 5769 5767 5765 5764 5762 5759 5757 5755 5753 5750 5748 5745 5742 5740 5737 5733 5730 5727 5724 5721 5717 5714 5711 5707 5704 5701
5787 5786 5784 5783 5781 5780 5778 5777 5775 5773 5772 5770 5769 5767 5765 5764 5762 5761 5759 5757 5755 5753 5751 5749 5747 5744 5742 5740 5737 5734 5731 5728 5725 5722 5719 5716 5713 5709 5706 5703 5700 5696 5693
5777 5776 5775 5774 5773 5771 5770 5768 5766 5765 5763 5762 5760 5759 5757 5756 5754 5753 5751 5749 5747 5745 5743 5741 5738 5736 5734 5731 5728 5726 5723 5720 5717 5714 5711 5708 5705 5701 5698 5695 5692 5689 5686
5768 5767 5766 5765 5764 5762 5761 5759 5758 5756 5755 5753 5751 5750 5749 5747 5746 5745 5743 5741 5739 5737 5735 5732 5730 5728 5725 5722 5720 5717 5714 5712 5709 5706 5703 5700 5697 5694 5691 5688 5685 5682 5679
5759 5758 5757 5756 5755 5753 5752 5751 5749 5748 5747 5745 5744 5742 5740 5739 5737 5736 5734 5732 5730 5728 5726 5724 5721 5719 5716 5714 5711 5708 5706 5703 5700 5697 5694 5692 5689 5686 5683 5680 5677 5674 5671
5750 5749 5748 5747 5746 5745 5743 5742 5741 5740 5738 5737 5735 5734 5732 5731 5729 5727 5725 5723 5721 5719 5717 5715 5712 5710 5708 5705 5702 5700 5697 5694 5692 5689 5686 5684 5681 5678 5675 5672 5669 5667 5664
5741 5740 5739 5738 5737 5736 5735 5734 5733 5732 5730 5729 5727 5726 5724 5722 5721 5719 5717 5715 5713 5710 5708 5706 5703 5701 5698 5696 5693 5691 5688 5686 5683 5680 5678 5675 5673 5670 5667 5664 5662 5659 5656
5733 5732 5731 5730 5729 5728 5727 5726 5724 5723 5722 5720 5719 5717 5715 5714 5712 5710 5708 5706 5704 5701 5699 5697 5694 5692 5689 5687 5684 5682 5679 5677 5675 5672 5669 5667 5664 5662 5659 5657 5654 5652 5649